TimeEST,TemperatureF,Dew PointF,Humidity,Sea Level PressureIn,VisibilityMPH,Wind Direction,Wind SpeedMPH,Gust SpeedMPH,PrecipitationIn,Events,Conditions,WindDirDegrees,DateUTC
12:54 AM,32.0,24.1,73,30.18,10.0,East,10.4,18.4,N/A,,Overcast,80,2013-02-23 05:54:00
1:54 AM,33.1,25.0,72,30.16,10.0,ENE,6.9,21.9,N/A,,Overcast,70,2013-02-23 06:54:00
2:54 AM,33.1,27.0,78,30.14,10.0,East,12.7,20.7,N/A,,Overcast,80,2013-02-23 07:54:00
3:38 AM,33.8,26.6,75,30.10,9.0,East,9.2,-,N/A,,Overcast,90,2013-02-23 08:38:00
3:54 AM,33.1,28.0,82,30.12,9.0,ENE,9.2,-,N/A,,Overcast,70,2013-02-23 08:54:00
4:54 AM,33.1,28.9,85,30.10,8.0,ENE,10.4,-,N/A,,Overcast,70,2013-02-23 09:54:00
5:44 AM,32.0,30.2,93,30.07,3.0,East,10.4,-,N/A,,Overcast,80,2013-02-23 10:44:00
5:54 AM,32.0,30.9,96,30.09,3.0,ENE,10.4,16.1,N/A,,Overcast,60,2013-02-23 10:54:00
6:31 AM,33.8,30.2,87,30.07,2.5,NE,6.9,-,N/A,,Overcast,50,2013-02-23 11:31:00
6:54 AM,32.0,30.9,96,30.09,2.5,NE,8.1,-,N/A,,Overcast,40,2013-02-23 11:54:00
7:54 AM,33.1,30.9,92,30.09,2.5,ENE,10.4,-,N/A,,Overcast,60,2013-02-23 12:54:00
8:05 AM,33.8,30.2,87,30.06,3.0,NE,8.1,-,N/A,,Overcast,40,2013-02-23 13:05:00
8:15 AM,33.8,32.0,93,30.06,2.5,ENE,11.5,-,N/A,,Overcast,60,2013-02-23 13:15:00
8:26 AM,33.8,32.0,93,30.06,1.8,ENE,8.1,-,N/A,,Overcast,70,2013-02-23 13:26:00
8:34 AM,33.8,32.0,93,30.06,2.0,ENE,6.9,-,N/A,,Overcast,60,2013-02-23 13:34:00
8:51 AM,33.8,32.0,93,30.04,3.0,ENE,5.8,-,N/A,,Overcast,60,2013-02-23 13:51:00
8:54 AM,33.1,32.0,96,30.06,4.0,ENE,5.8,-,N/A,,Overcast,70,2013-02-23 13:54:00
9:54 AM,34.0,32.0,92,30.03,4.0,ENE,8.1,-,N/A,,Overcast,70,2013-02-23 14:54:00
10:13 AM,33.8,33.8,100,30.00,2.5,ENE,9.2,-,N/A,,Overcast,60,2013-02-23 15:13:00
10:29 AM,33.8,32.0,93,29.99,3.0,ENE,10.4,-,N/A,,Overcast,60,2013-02-23 15:29:00
10:39 AM,33.8,33.8,100,29.99,2.5,NE,8.1,-,N/A,,Overcast,40,2013-02-23 15:39:00
10:50 AM,33.8,33.8,100,30.00,3.0,Calm,Calm,-,N/A,,Overcast,0,2013-02-23 15:50:00
10:54 AM,34.0,33.1,96,30.02,4.0,Calm,Calm,-,N/A,,Overcast,0,2013-02-23 15:54:00
11:28 AM,33.8,33.8,100,30.01,2.0,Calm,Calm,-,N/A,,Overcast,0,2013-02-23 16:28:00
11:35 AM,33.8,33.8,100,30.00,1.5,NE,3.5,-,N/A,,Overcast,50,2013-02-23 16:35:00
11:54 AM,34.0,34.0,100,30.01,1.5,NE,4.6,-,N/A,,Overcast,50,2013-02-23 16:54:00
11:57 AM,33.8,33.8,100,29.99,2.0,NE,4.6,-,N/A,,Overcast,50,2013-02-23 16:57:00
12:29 PM,35.6,33.8,93,29.98,3.0,NE,8.1,-,0.00,Rain,Light Rain,40,2013-02-23 17:29:00
12:54 PM,35.1,34.0,96,29.98,5.0,NE,3.5,-,0.00,,Overcast,40,2013-02-23 17:54:00
1:23 PM,35.6,33.8,93,29.95,2.5,NE,6.9,-,N/A,,Overcast,40,2013-02-23 18:23:00
1:54 PM,36.0,34.0,93,29.95,1.8,NE,5.8,-,N/A,,Overcast,50,2013-02-23 18:54:00
2:07 PM,35.6,33.8,93,29.94,2.0,Calm,Calm,-,N/A,,Overcast,0,2013-02-23 19:07:00
2:18 PM,35.6,35.6,100,29.93,1.5,ESE,3.5,-,N/A,,Overcast,110,2013-02-23 19:18:00
2:54 PM,35.1,34.0,96,29.94,2.0,ENE,4.6,-,N/A,,Overcast,60,2013-02-23 19:54:00
3:12 PM,35.6,33.8,93,29.92,2.5,ENE,5.8,-,N/A,,Overcast,70,2013-02-23 20:12:00
3:27 PM,35.6,35.6,100,29.91,1.8,East,3.5,-,N/A,,Overcast,80,2013-02-23 20:27:00
3:54 PM,35.1,34.0,96,29.91,1.5,East,4.6,-,N/A,,Overcast,80,2013-02-23 20:54:00
4:23 PM,35.6,35.6,100,29.89,2.0,Calm,Calm,-,N/A,,Overcast,0,2013-02-23 21:23:00
4:46 PM,35.6,35.6,100,29.89,1.8,Calm,Calm,-,N/A,,Overcast,0,2013-02-23 21:46:00
4:54 PM,35.1,35.1,100,29.91,1.5,Calm,Calm,-,N/A,,Overcast,0,2013-02-23 21:54:00
5:26 PM,35.6,33.8,93,29.89,0.8,Calm,Calm,-,N/A,,Overcast,0,2013-02-23 22:26:00
5:54 PM,34.0,34.0,100,29.92,0.8,Calm,Calm,-,N/A,,Overcast,0,2013-02-23 22:54:00
6:07 PM,33.8,33.8,100,29.90,0.8,Calm,Calm,-,N/A,,Overcast,0,2013-02-23 23:07:00
6:54 PM,35.1,34.0,96,29.90,1.2,Calm,Calm,-,N/A,,Overcast,0,2013-02-23 23:54:00
7:34 PM,35.6,33.8,93,29.88,2.5,Calm,Calm,-,N/A,,Overcast,0,2013-02-24 00:34:00
7:54 PM,34.0,34.0,100,29.90,0.8,Calm,Calm,-,N/A,,Overcast,0,2013-02-24 00:54:00
8:11 PM,33.8,33.8,100,29.89,1.0,Calm,Calm,-,N/A,,Overcast,0,2013-02-24 01:11:00
8:23 PM,33.8,33.8,100,29.89,0.8,Calm,Calm,-,N/A,,Overcast,0,2013-02-24 01:23:00
8:54 PM,34.0,34.0,100,29.89,0.5,Calm,Calm,-,N/A,Fog,Fog,0,2013-02-24 01:54:00
9:21 PM,33.8,33.8,100,29.87,0.2,WNW,3.5,-,N/A,Fog,Fog,290,2013-02-24 02:21:00
9:39 PM,33.8,33.8,100,29.87,0.5,WSW,3.5,-,N/A,Fog,Fog,240,2013-02-24 02:39:00
9:54 PM,34.0,34.0,100,29.88,0.5,Calm,Calm,-,N/A,Fog,Fog,0,2013-02-24 02:54:00
10:15 PM,33.8,33.8,100,29.87,0.2,Calm,Calm,-,N/A,Fog,Fog,0,2013-02-24 03:15:00
10:54 PM,34.0,34.0,100,29.87,0.2,Calm,Calm,-,N/A,Fog,Fog,0,2013-02-24 03:54:00
11:54 PM,35.1,34.0,96,29.87,0.2,West,4.6,-,N/A,Fog,Fog,280,2013-02-24 04:54:00